Location: Mount Cross
(36.6390°N, 79.4878°W)
Time: 14:06:59
(UTC+00:00)

Tiros 1 - Pass Details

Date: 29 March 2023
Orbit: 627 x 661 km, 48.4° (Epoch: 05 June)

Event Time Altitude Azimuth Distance (km) Brightness Sun altitude
Rises 10:03:46 0° 265° (W) 2,976 - -13.6°
Reaches altitude 10° 10:06:19 10° 275° (W) 2,069 - -13.2°
Exits shadow 10:07:26 16° 283° (WNW) 1,713 8.8 -12.9°
Maximum altitude 10:10:36 32° 338° (NNW) 1,139 8.3 -12.3°
Drops below altitude 10° 10:14:54 10° 42° (NE) 2,077 10.6 -11.5°
Sets 10:17:28 0° 52° (NE) 2,990 11.9 -11.0°
